[[{"header":{"parameterUnit":"m.s-1","parameterCategory":1,"la1":30.2992,"la2":30.254,"lo1":-89.0895,"lo2":-89.0443,"dy":0.0025,"dx":0.0025,"nx":19,"ny":19,"refTime":"2026-03-30T03:00:00:Z","depth":0,"parameterNumber":2,"parameterNumberName":"U-component_of_WINDS"},"data":[0,0,0,-3.7191,-3.7193,-3.7257,-3.7257,-3.7346,-3.7347,0,0,0,0,0,0,0,0,0,0,0,-3.7178,-3.7178,-3.7191,-3.7193,-3.7257,-3.7257,-3.7346,-3.7347,0,0,0,0,0,0,0,0,0,0,0,-3.7177,-3.7178,-3.7179,-3.7193,-3.7257,-3.7257,-3.7346,-3.7295,0,0,0,0,0,0,0,0,0,0,-3.7231,-3.7224,-3.7178,-3.7179,-3.7194,-3.7257,-3.7257,-3.7292,-3.7298,-3.732,0,-3.7343,0,-3.7346,-3.7353,-3.7354,0,0,0,-3.7189,-3.7219,-3.7232,-3.7179,-3.7194,-3.7257,-3.7227,-3.7295,-3.7302,-3.7328,-3.7344,-3.7347,-3.7348,-3.7354,-3.7354,-3.7501,-3.7502,0,0,-3.7185,-3.7191,-3.7227,-3.7236,-3.7228,-3.7225,-3.7229,-3.7299,-3.7316,-3.7344,-3.7349,-3.7349,-3.7355,-3.7355,-3.7501,-3.7502,0,0,0,-3.7178,-3.7189,-3.72,-3.7233,-3.7244,-3.7227,-3.7232,-3.7313,-3.7316,-3.735,-3.735,-3.7355,-3.7356,-3.75,-3.7501,-3.755,0,0,0,-3.7176,-3.7185,-3.7199,-3.7203,-3.7243,-3.7279,-3.7244,-3.7311,-3.7319,-3.735,-3.7355,-3.7357,-3.7499,-3.75,-3.7547,-3.7571,0,0,0,-3.7172,-3.7184,-3.7196,-3.7203,-3.7231,-3.7278,-3.7285,-3.7313,-3.732,-3.7354,-3.7358,-3.7498,-3.75,-3.7544,-3.7566,-3.7611,0,0,0,-3.7169,-3.7238,-3.7197,-3.7275,-3.7231,-3.7309,-3.7285,-3.7342,-3.7378,-3.7356,-3.7499,-3.7501,-3.7543,-3.7563,-3.7608,-3.7648,-3.7666,0,0,-3.7259,-3.7249,-3.7295,-3.7259,-3.7347,-3.7299,-3.7393,-3.7419,-3.7416,-3.7473,-3.7476,-3.7548,-3.7566,-3.761,-3.7769,-3.7784,0,0,0,-3.7325,-3.7358,-3.738,-3.7415,-3.7438,-3.7458,-3.747,-3.7479,-3.7528,-3.7447,-3.7577,-3.7588,-3.7613,-3.7632,-3.7644,-3.7665,-3.7511,-3.751,-3.751,-3.746,-3.7455,-3.7529,-3.7532,-3.7566,-3.7578,-3.7604,-3.7619,-3.7603,-3.7634,-3.7649,-3.7747,-3.7769,-3.7778,-3.78,-3.7672,-3.7673,-3.7673,-3.7673,-3.7591,-3.7635,-3.7614,-3.7678,-3.7672,-3.7725,-3.774,-3.7727,-3.7775,-3.7734,-3.7756,-3.771,-3.7794,-3.7813,-3.7677,-3.7676,-3.7675,-3.7675,-3.7675,-3.7676,-3.7697,-3.7709,-3.776,-3.7799,-3.78,-3.7847,-3.784,-3.7833,-3.7855,-3.787,-3.7869,-3.7866,-3.7864,-3.7864,-3.7864,-3.7865,-3.7865,-3.7865,-3.7759,-3.7772,-3.7813,-3.7845,-3.7867,-3.7895,-3.7909,-3.793,-3.7951,-3.7941,-3.7942,-3.7921,-3.7805,-3.7774,-3.787,-3.7869,-3.7869,-3.7868,-3.7868,-3.7889,-3.7859,-3.7923,-3.7945,-3.7982,-3.8021,-3.8013,-3.8056,-3.8073,-3.8096,-3.8072,-3.7989,-3.7977,-3.7967,-3.7941,-3.8074,-3.8074,-3.8074,-3.8075,-3.7959,-3.7954,-3.8018,-3.8054,-3.8088,-3.8087,-3.8159,-3.8172,-3.8179,-3.8189,-3.8169,-3.8136,-3.8127,-3.812,-3.8107,-3.8083,-3.8249,-3.8249,-3.8249,-3.8038,-3.8036,-3.8098,-3.8107,-3.8136,-3.816,-3.8227,-3.8268,-3.8271,-3.8256,-3.8196,-3.8188,-3.8135,-3.8118,-3.8098,-3.8078,-3.8033,0,0]},{"header":{"parameterUnit":"m.s-1","parameterCategory":1,"la1":30.2992,"la2":30.254,"lo1":-89.0895,"lo2":-89.0443,"dy":0.0025,"dx":0.0025,"nx":19,"ny":19,"refTime":"2026-03-30T03:00:00:Z","depth":0,"parameterNumber":3,"parameterNumberName":"V-component_of_WINDS"},"data":[0,0,0,3.139,3.1392,3.147,3.1471,3.1563,3.1564,0,0,0,0,0,0,0,0,0,0,0,3.1363,3.1364,3.139,3.1392,3.147,3.1471,3.1563,3.1564,0,0,0,0,0,0,0,0,0,0,0,3.1363,3.1364,3.1364,3.1392,3.147,3.1471,3.1562,3.1506,0,0,0,0,0,0,0,0,0,0,3.1431,3.1403,3.1364,3.1364,3.1393,3.147,3.1471,3.1503,3.1509,3.1524,0,3.1538,0,3.1552,3.1569,3.157,0,0,0,3.1394,3.1398,3.1422,3.1364,3.1393,3.147,3.1436,3.1507,3.1514,3.1532,3.1539,3.1543,3.1554,3.157,3.157,3.1654,3.1655,0,0,3.139,3.1375,3.1418,3.1427,3.1416,3.1433,3.1438,3.1511,3.1517,3.154,3.1545,3.1555,3.157,3.1571,3.1654,3.1654,0,0,0,3.1376,3.1372,3.1395,3.1423,3.1438,3.1435,3.1441,3.1513,3.1522,3.1546,3.1556,3.1571,3.1572,3.1654,3.1654,3.1656,0,0,0,3.1373,3.1364,3.1393,3.1384,3.1436,3.1477,3.1442,3.1517,3.1526,3.1556,3.1571,3.1573,3.1653,3.1654,3.1655,3.1659,0,0,0,3.1359,3.1362,3.1372,3.1384,3.1417,3.1476,3.1489,3.152,3.1532,3.157,3.1573,3.1653,3.1654,3.1655,3.1658,3.1679,0,0,0,3.1339,3.1371,3.1372,3.1411,3.1416,3.1477,3.1489,3.1534,3.1566,3.1571,3.1654,3.1654,3.1655,3.1658,3.1678,3.1694,3.1699,0,0,3.1371,3.1374,3.1398,3.1402,3.1459,3.1466,3.1523,3.1565,3.1581,3.1629,3.1631,3.1656,3.1658,3.1679,3.1731,3.1735,0,0,0,3.1403,3.142,3.1439,3.147,3.1505,3.1535,3.1571,3.1587,3.1629,3.1603,3.1668,3.167,3.1683,3.1691,3.1695,3.1707,3.1657,3.1657,3.1657,3.1425,3.1446,3.1488,3.1519,3.155,3.1588,3.1614,3.1642,3.1651,3.1667,3.1681,3.1711,3.172,3.1723,3.1735,3.169,3.169,3.169,3.169,3.1474,3.1502,3.1518,3.1565,3.1586,3.1625,3.1663,3.1669,3.1708,3.1701,3.1713,3.1704,3.1727,3.1739,3.1691,3.1691,3.1691,3.1691,3.1691,3.1491,3.1509,3.153,3.1579,3.1615,3.1644,3.1682,3.1699,3.1716,3.1728,3.1746,3.1746,3.1749,3.1735,3.1735,3.1735,3.1735,3.1736,3.1736,3.1502,3.1526,3.1556,3.1598,3.1622,3.1655,3.1694,3.1718,3.1748,3.1758,3.1758,3.1767,3.1725,3.1714,3.1737,3.1737,3.1737,3.1737,3.1737,3.1545,3.1539,3.1586,3.1611,3.1662,3.1697,3.1719,3.1766,3.1787,3.1806,3.1813,3.1779,3.1782,3.178,3.1771,3.1808,3.1808,3.1808,3.1808,3.1561,3.1565,3.162,3.1657,3.1696,3.1722,3.1775,3.1806,3.1837,3.1852,3.1849,3.1839,3.1836,3.1842,3.1838,3.183,3.1881,3.1881,3.1881,3.1589,3.1599,3.1641,3.1674,3.1716,3.1751,3.1802,3.1844,3.1877,3.1885,3.1864,3.1861,3.1845,3.1839,3.1846,3.1839,3.1826,0,0]}]]